Weather History for Portland Troutdale, OR

Change the Weather History Date:

Monday, January 14, 2013

  Actual Average Record
Temperature  
Mean Temperature 31 °F 40 °F  
Max Temperature 34 °F 46 °F 64 °F (1991)
Min Temperature 28 °F 34 °F 11 °F (1950)
Degree Days  
Heating Degree Days 34 25  
Month to date heating degree days 389 367  
Cooling Degree Days 0 0  
Month to date cooling degree days 0 0  
Moisture  
Dew Point 28 °F    
Average Humidity 87    
Maximum Humidity 96    
Minimum Humidity 78    
Precipitation  
Precipitation T in 0.21 in 1.30 in (1980)
Month to date precipitation 0.85 3.07  
Year to date precipitation 0.85 3.07  
Snow  
Snow 0.00 in - - ()
Month to date snowfall 0.0  
Snow Depth 0.00 in    
Sea Level Pressure  
Sea Level Pressure 30.55 in    
Wind  
Wind Speed 0 mph (SE)    
Max Wind Speed 7 mph    
Max Gust Speed 7 mph    
Visibility 4 miles    
Events Rain , Snow    
T = Trace of Precipitation, MM = Missing Value Source: NWS Daily Summary

Daily Weather History Graph

Daily Weather History Graph

Search for Another Location

Airport:

Trip Planner

Search our weather history database for the weather conditions in past years. The results will help you decide how hot, cold, wet, or windy it might be!

Date:

Astronomy

Jan. 14, 2013 Rise Set
Actual Time 7:46 AM PST 4:51 PM PST
Civil Twilight 7:13 AM PST 5:24 PM PST
Nautical Twilight 6:36 AM PST 6:01 PM PST
Astronomical Twilight 6:00 AM PST 6:37 PM PST
Moon 9:10 AM PST (1/14) 8:57 PM PST (1/14)
Length of Visible Light 10h 11m
Length of Day
9h 05m
Waxing Crescent, 12% of the Moon is Illuminated
Jan 14
Waxing Crescent
Jan 18
First Quarter
Jan 26
Full
Feb 3
Last Quarter
Feb 9
New

Hourly Weather History & Observations

Time (PST) Temp. Windchill Dew Point Humidity Pressure Visibility Wind Dir Wind Speed Gust Speed Precip Events Conditions
12:53 AM 28.9 °F - 26.1 °F 89% 30.51 in 6.0 mi Calm Calm - N/A   Overcast
1:32 AM 28.4 °F - 26.6 °F 93% 30.51 in 6.0 mi Calm Calm - N/A   Overcast
1:53 AM 30.0 °F - 26.1 °F 85% 30.51 in 7.0 mi Calm Calm - N/A   Overcast
2:53 AM 30.9 °F - 25.0 °F 79% 30.53 in 10.0 mi Calm Calm - N/A   Overcast
4:23 AM 30.2 °F - 24.8 °F 80% 30.52 in 10.0 mi Calm Calm - N/A   Overcast
4:53 AM 30.9 °F - 25.0 °F 79% 30.52 in 10.0 mi Calm Calm - N/A   Overcast
5:53 AM 30.9 °F - 24.1 °F 76% 30.52 in 10.0 mi Calm Calm - N/A   Overcast
6:53 AM 30.0 °F - 25.0 °F 82% 30.53 in 10.0 mi Calm Calm - N/A   Overcast
7:53 AM 30.0 °F 25.2 °F 24.1 °F 79% 30.54 in 10.0 mi South 4.6 mph - N/A   Overcast
8:32 AM 30.2 °F 25.4 °F 24.8 °F 80% 30.55 in 10.0 mi South 4.6 mph - N/A   Overcast
8:53 AM 30.0 °F - 25.0 °F 82% 30.56 in 5.0 mi Calm Calm - N/A   Haze
9:09 AM 30.2 °F - 26.6 °F 86% 30.56 in 3.0 mi Calm Calm - 0.00 in Snow Light Snow
9:30 AM 30.2 °F - 26.6 °F 86% 30.56 in 2.0 mi Calm Calm - 0.00 in Snow Light Snow
9:53 AM 30.0 °F - 27.0 °F 88% 30.57 in 2.0 mi Calm Calm - 0.00 in Snow Light Snow
9:59 AM 30.2 °F - 26.6 °F 86% 30.57 in 1.2 mi Calm Calm - 0.00 in Snow Light Snow
10:16 AM 30.2 °F - 26.6 °F 86% 30.57 in 1.5 mi Calm Calm - 0.00 in Snow Light Snow
10:30 AM 30.2 °F - 26.6 °F 86% 30.57 in 1.8 mi Calm Calm - 0.00 in Snow Light Snow
10:53 AM 30.9 °F - 27.0 °F 85% 30.56 in 2.5 mi Calm Calm - 0.00 in   Overcast
11:02 AM 30.2 °F - 26.6 °F 86% 30.55 in 3.0 mi Calm Calm - N/A   Overcast
11:53 AM 32.0 °F - 26.1 °F 79% 30.55 in 6.0 mi Calm Calm - N/A   Haze
12:53 PM 32.0 °F - 27.0 °F 82% 30.54 in 2.0 mi Calm Calm - 0.00 in Snow Light Snow
1:00 PM 32.0 °F - 26.6 °F 80% 30.54 in 1.2 mi Calm Calm - 0.00 in Snow Light Snow
1:14 PM 32.0 °F - 28.4 °F 87% 30.54 in 1.5 mi Calm Calm - 0.00 in Snow Light Snow
1:22 PM 32.0 °F - 28.4 °F 87% 30.54 in 2.0 mi Calm Calm - 0.00 in   Overcast
1:36 PM 32.0 °F - 28.4 °F 87% 30.54 in 2.5 mi Calm Calm - 0.00 in Snow Light Snow
2:42 PM 32.0 °F - 28.4 °F 87% 30.56 in 2.5 mi Calm Calm - 0.00 in Snow Light Snow
2:53 PM 33.1 °F - 28.0 °F 82% 30.56 in 3.0 mi Calm Calm - 0.00 in   Haze
3:53 PM 33.1 °F - 28.9 °F 85% 30.56 in 2.5 mi Calm Calm - 0.00 in Snow Light Snow
4:06 PM 33.8 °F - 28.4 °F 81% 30.56 in 3.0 mi Calm Calm - 0.00 in   Overcast
4:14 PM 32.0 °F - 28.4 °F 87% 30.56 in 1.8 mi Calm Calm - 0.00 in Snow Light Snow
4:44 PM 32.0 °F - 28.4 °F 87% 30.56 in 2.5 mi Calm Calm - 0.00 in   Overcast
4:53 PM 32.0 °F - 28.9 °F 88% 30.56 in 2.5 mi Calm Calm - 0.00 in   Overcast
5:20 PM 32.0 °F - 30.2 °F 93% 30.56 in 2.5 mi Calm Calm - 0.00 in Snow Light Snow
5:53 PM 32.0 °F - 30.0 °F 92% 30.56 in 2.5 mi Calm Calm - 0.00 in   Overcast
6:53 PM 32.0 °F - 30.0 °F 92% 30.56 in 2.5 mi Calm Calm - 0.00 in   Overcast
7:30 PM 33.8 °F 30.8 °F 30.2 °F 87% 30.57 in 2.5 mi East 3.5 mph - 0.00 in Rain Light Freezing Rain
7:53 PM 33.1 °F 30.0 °F 30.9 °F 92% 30.57 in 2.5 mi East 3.5 mph - 0.00 in Rain Light Freezing Rain
8:11 PM 33.8 °F - 30.2 °F 87% 30.57 in 2.5 mi Calm Calm - 0.00 in   Overcast
8:50 PM 33.8 °F - 30.2 °F 87% 30.57 in 2.0 mi Calm Calm - 0.00 in   Overcast
8:53 PM 33.1 °F - 30.9 °F 92% 30.57 in 2.0 mi Calm Calm - 0.00 in   Overcast
9:16 PM 33.8 °F - 30.2 °F 87% 30.57 in 1.8 mi Calm Calm - N/A   Overcast
9:35 PM 33.8 °F - 30.2 °F 87% 30.57 in 2.0 mi Calm Calm - N/A   Overcast
9:44 PM 33.8 °F - 32.0 °F 93% 30.57 in 1.8 mi Calm Calm - N/A   Overcast
9:53 PM 33.1 °F - 32.0 °F 96% 30.57 in 1.5 mi Calm Calm - N/A   Overcast
10:53 PM 33.1 °F - 32.0 °F 96% 30.56 in 1.5 mi Calm Calm - N/A   Overcast
11:00 PM 33.8 °F - 30.2 °F 87% 30.56 in 1.5 mi Calm Calm - N/A   Overcast
11:53 PM 33.1 °F - 32.0 °F 96% 30.58 in 1.2 mi Calm Calm - N/A   Overcast